| << 21.8. | 23.8. >> |
|
Windrichtung in Grad |
Windgeschw. in m/s |
Windspitzen in m/s |
Temp.Minima in °C |
Temperatur in °C |
Temp.Maxima in °C |
Luftfeuchte in % |
Luftdruck in hPa |
Taupunkt in °C |
Niederschlag in mm |
|
|---|---|---|---|---|---|---|---|---|---|---|
| ▲ Maxima | 2,1 | 5,6 | 18,2 | 18,7 | 19,3 | 98,2 | 1010,8 | 15,6 | 0,0 | |
| Ø Mittelwert | 259,4 | 0,9 | 2,2 | 13,4 | 13,7 | 14,0 | 87,7 | 1006,0 | 13,1 | 0,0 |
| ▼ Minima | 0,2 | 0,6 | 10,7 | 10,8 | 11,0 | 65,3 | 1000,8 | 10,6 | 0,0 | |
| ∑ Summe | 0,0 |
| Uhrzeit (MEZ) | Windrichtung in Grad | Windgeschw. in m/s | Windspitzen in m/s | Temp.Minima in °C | Temperatur in °C | Temp.Maxima in °C | Luftfeuchte in % | Luftdruck in hPa | Taupunkt in °C | Niederschlag in mm |
|---|---|---|---|---|---|---|---|---|---|---|
| 00:00 | 243,8 | 2,0 | 4,5 | 11,9 | 12,1 | 12,2 | 96,0 | 1000,8 | 12,9 | 0,0 |
| 00:10 | 243,3 | 1,8 | 4,2 | 11,9 | 12,1 | 12,1 | 95,7 | 1000,8 | 12,8 | 0,0 |
| 00:20 | 247,8 | 1,6 | 4,8 | 11,8 | 12,0 | 12,1 | 95,8 | 1000,8 | 12,8 | 0,0 |
| 00:30 | 238,3 | 1,6 | 3,4 | 11,9 | 12,1 | 12,2 | 95,9 | 1000,8 | 12,9 | 0,0 |
| 00:40 | 248,5 | 1,5 | 2,7 | 12,0 | 12,1 | 12,2 | 96,0 | 1000,8 | 12,9 | 0,0 |
| 00:50 | 250,6 | 1,4 | 3,8 | 11,8 | 12,0 | 12,1 | 96,1 | 1000,8 | 12,8 | 0,0 |
| 01:00 | 249,9 | 1,7 | 3,6 | 11,8 | 12,0 | 12,1 | 96,1 | 1000,9 | 12,8 | 0,0 |
| 01:10 | 248,6 | 1,2 | 2,9 | 11,7 | 11,9 | 12,1 | 96,4 | 1000,9 | 12,8 | 0,0 |
| 01:20 | 249,0 | 1,5 | 2,9 | 12,0 | 12,1 | 12,2 | 96,6 | 1000,9 | 13,0 | 0,0 |
| 01:30 | 255,7 | 1,4 | 3,5 | 11,8 | 12,1 | 12,2 | 96,6 | 1001,0 | 13,0 | 0,0 |
| 01:40 | 249,2 | 1,2 | 2,9 | 11,7 | 12,0 | 12,1 | 96,8 | 1001,1 | 13,0 | 0,0 |
| 01:50 | 254,6 | 1,4 | 3,0 | 11,8 | 12,0 | 12,1 | 97,0 | 1001,2 | 13,0 | 0,0 |
| 02:00 | 253,4 | 1,5 | 3,2 | 11,9 | 12,1 | 12,2 | 97,2 | 1001,2 | 13,1 | 0,0 |
| 02:10 | 258,3 | 1,4 | 3,4 | 11,8 | 12,1 | 12,2 | 97,3 | 1001,3 | 13,1 | 0,0 |
| 02:20 | 268,8 | 1,1 | 3,7 | 11,8 | 12,0 | 12,3 | 97,4 | 1001,3 | 13,2 | 0,0 |
| 02:30 | 246,3 | 2,0 | 4,3 | 11,9 | 12,1 | 12,2 | 97,1 | 1001,5 | 13,0 | 0,0 |
| 02:40 | 246,6 | 1,7 | 3,3 | 11,8 | 12,0 | 12,0 | 97,4 | 1001,6 | 12,9 | 0,0 |
| 02:50 | 245,9 | 1,5 | 2,9 | 11,7 | 11,9 | 12,0 | 97,6 | 1001,7 | 13,0 | 0,0 |
| 03:00 | 252,5 | 1,5 | 2,8 | 11,9 | 12,0 | 12,0 | 97,8 | 1001,7 | 13,0 | 0,0 |
| 03:10 | 252,8 | 1,5 | 3,7 | 11,7 | 12,0 | 12,0 | 97,8 | 1001,9 | 13,0 | 0,0 |
| 03:20 | 260,9 | 1,5 | 3,2 | 11,7 | 11,9 | 12,0 | 97,9 | 1002,0 | 13,0 | 0,0 |
| 03:30 | 250,3 | 1,5 | 2,6 | 11,6 | 11,9 | 12,0 | 98,0 | 1002,0 | 13,0 | 0,0 |
| 03:40 | 259,3 | 1,5 | 3,1 | 11,7 | 11,9 | 11,9 | 98,1 | 1002,1 | 13,0 | 0,0 |
| 03:50 | 256,8 | 1,4 | 3,0 | 11,6 | 11,8 | 11,9 | 98,2 | 1002,2 | 13,0 | 0,0 |
| 04:00 | 250,4 | 1,0 | 1,9 | 11,5 | 11,8 | 12,0 | 98,2 | 1002,3 | 13,0 | 0,0 |
| 04:10 | 252,6 | 1,3 | 2,7 | 11,6 | 11,8 | 11,9 | 98,1 | 1002,4 | 13,0 | 0,0 |
| 04:20 | 254,8 | 1,3 | 2,8 | 11,6 | 11,8 | 11,9 | 98,1 | 1002,5 | 13,0 | 0,0 |
| 04:30 | 257,6 | 1,1 | 2,2 | 11,5 | 11,7 | 11,9 | 98,1 | 1002,6 | 13,0 | 0,0 |
| 04:40 | 256,7 | 1,1 | 2,1 | 11,5 | 11,8 | 11,9 | 98,1 | 1002,7 | 13,0 | 0,0 |
| 04:50 | 254,5 | 0,9 | 2,3 | 11,5 | 11,7 | 11,9 | 98,1 | 1002,7 | 13,0 | 0,0 |
| 05:00 | 253,9 | 1,0 | 1,7 | 11,6 | 11,8 | 12,0 | 98,0 | 1002,8 | 13,0 | 0,0 |
| 05:10 | 255,4 | 0,9 | 1,9 | 11,5 | 11,7 | 11,9 | 98,0 | 1002,8 | 13,0 | 0,0 |
| 05:20 | 260,0 | 0,9 | 2,0 | 11,6 | 11,7 | 11,9 | 98,0 | 1002,9 | 13,0 | 0,0 |
| 05:30 | 254,4 | 1,0 | 1,8 | 11,6 | 11,7 | 11,9 | 98,0 | 1003,1 | 12,9 | 0,0 |
| 05:40 | 257,6 | 0,9 | 2,1 | 11,4 | 11,6 | 11,8 | 98,0 | 1003,2 | 12,9 | 0,0 |
| 05:50 | 271,5 | 1,0 | 2,0 | 11,4 | 11,6 | 11,8 | 98,0 | 1003,4 | 12,8 | 0,0 |
| 06:00 | 257,2 | 1,1 | 2,2 | 11,4 | 11,7 | 11,8 | 98,1 | 1003,5 | 12,9 | 0,0 |
| 06:10 | 259,4 | 1,0 | 1,8 | 11,6 | 11,7 | 11,9 | 98,2 | 1003,5 | 12,9 | 0,0 |
| 06:20 | 253,3 | 0,8 | 1,4 | 11,5 | 11,7 | 11,8 | 98,1 | 1003,6 | 13,0 | 0,0 |
| 06:30 | 263,9 | 0,9 | 1,7 | 11,5 | 11,7 | 11,9 | 98,1 | 1003,7 | 13,0 | 0,0 |
| 06:40 | 260,2 | 0,8 | 1,7 | 11,6 | 11,7 | 11,9 | 98,1 | 1003,9 | 13,0 | 0,0 |
| 06:50 | 250,6 | 0,9 | 1,8 | 11,7 | 11,8 | 12,0 | 98,0 | 1004,0 | 13,1 | 0,0 |
| 07:00 | 256,3 | 0,9 | 1,8 | 11,6 | 11,9 | 12,3 | 98,0 | 1004,0 | 13,2 | 0,0 |
| 07:10 | 261,8 | 1,0 | 2,4 | 12,0 | 12,3 | 12,6 | 98,0 | 1004,1 | 13,5 | 0,0 |
| 07:20 | 260,6 | 0,9 | 2,1 | 12,4 | 12,7 | 13,1 | 97,6 | 1004,2 | 13,9 | 0,0 |
| 07:30 | 258,9 | 0,9 | 2,3 | 12,7 | 12,9 | 13,1 | 96,6 | 1004,4 | 13,9 | 0,0 |
| 07:40 | 257,5 | 0,9 | 1,7 | 12,7 | 12,9 | 13,1 | 96,2 | 1004,6 | 13,9 | 0,0 |
| 07:50 | 258,2 | 1,1 | 2,2 | 12,8 | 13,0 | 13,2 | 95,7 | 1004,7 | 13,8 | 0,0 |
| Uhrzeit (MEZ) | Windrichtung in Grad | Windgeschw. in m/s | Windspitzen in m/s | Temp.Minima in °C | Temperatur in °C | Temp.Maxima in °C | Luftfeuchte in % | Luftdruck in hPa | Taupunkt in °C | Niederschlag in mm |
|---|---|---|---|---|---|---|---|---|---|---|
| 08:00 | 256,0 | 1,2 | 2,8 | 12,7 | 12,9 | 13,1 | 95,2 | 1004,7 | 13,6 | 0,0 |
| 08:10 | 250,1 | 1,0 | 1,9 | 12,7 | 13,0 | 13,2 | 95,0 | 1004,8 | 13,7 | 0,0 |
| 08:20 | 259,6 | 1,1 | 3,0 | 12,9 | 13,1 | 13,3 | 94,5 | 1005,0 | 13,7 | 0,0 |
| 08:30 | 255,6 | 0,8 | 2,2 | 13,2 | 13,6 | 14,3 | 93,8 | 1005,2 | 14,2 | 0,0 |
| 08:40 | 262,6 | 1,0 | 2,1 | 14,0 | 14,3 | 14,6 | 90,2 | 1005,2 | 14,2 | 0,0 |
| 08:50 | 267,7 | 0,6 | 2,3 | 14,0 | 14,2 | 14,8 | 89,7 | 1005,3 | 14,1 | 0,0 |
| 09:00 | 260,7 | 0,8 | 2,4 | 14,4 | 14,8 | 15,3 | 88,1 | 1005,3 | 14,4 | 0,0 |
| 09:10 | 269,6 | 0,6 | 2,2 | 14,7 | 15,0 | 15,4 | 86,4 | 1005,4 | 14,3 | 0,0 |
| 09:20 | 273,2 | 1,0 | 3,2 | 14,9 | 15,3 | 15,6 | 84,4 | 1005,4 | 14,1 | 0,0 |
| 09:30 | 278,7 | 0,9 | 2,5 | 14,6 | 14,9 | 15,3 | 84,1 | 1005,6 | 13,7 | 0,0 |
| 09:40 | 264,9 | 1,1 | 4,1 | 14,7 | 15,1 | 15,5 | 82,9 | 1005,7 | 13,7 | 0,0 |
| 09:50 | 288,1 | 0,9 | 2,4 | 15,2 | 15,5 | 15,9 | 80,6 | 1005,7 | 13,6 | 0,0 |
| 10:00 | 297,5 | 0,9 | 2,7 | 15,1 | 15,3 | 15,6 | 80,5 | 1005,7 | 13,4 | 0,0 |
| 10:10 | 279,4 | 1,0 | 2,9 | 15,2 | 15,5 | 15,7 | 80,7 | 1005,8 | 13,6 | 0,0 |
| 10:20 | 277,9 | 0,8 | 3,3 | 15,1 | 15,9 | 16,8 | 77,3 | 1005,8 | 13,4 | 0,0 |
| 10:30 | 270,4 | 1,2 | 3,3 | 16,3 | 16,7 | 17,0 | 72,9 | 1005,9 | 13,1 | 0,0 |
| 10:40 | 284,3 | 0,8 | 2,5 | 15,5 | 15,9 | 16,5 | 75,2 | 1006,0 | 12,9 | 0,0 |
| 10:50 | 260,9 | 0,6 | 2,0 | 15,3 | 15,4 | 15,8 | 78,4 | 1006,2 | 13,2 | 0,0 |
| 11:00 | 276,1 | 0,6 | 2,1 | 15,2 | 15,5 | 15,8 | 79,1 | 1006,3 | 13,3 | 0,0 |
| 11:10 | 304,2 | 0,5 | 1,7 | 15,3 | 15,5 | 15,7 | 77,2 | 1006,3 | 13,0 | 0,0 |
| 11:20 | 6,8 | 0,4 | 1,7 | 15,6 | 16,3 | 17,0 | 73,2 | 1006,2 | 13,0 | 0,0 |
| 11:30 | 315,2 | 0,9 | 2,5 | 16,6 | 17,1 | 17,5 | 70,2 | 1006,1 | 12,9 | 0,0 |
| 11:40 | 288,0 | 1,0 | 3,1 | 16,2 | 16,7 | 17,2 | 72,2 | 1006,2 | 13,0 | 0,0 |
| 11:50 | 12,6 | 0,7 | 2,1 | 16,0 | 16,4 | 16,9 | 70,7 | 1006,3 | 12,4 | 0,0 |
| 12:00 | 12,8 | 1,0 | 3,0 | 16,8 | 17,2 | 17,6 | 68,5 | 1006,4 | 12,6 | 0,0 |
| 12:10 | 299,1 | 0,6 | 2,6 | 16,8 | 17,3 | 17,9 | 69,2 | 1006,4 | 13,0 | 0,0 |
| 12:20 | 285,5 | 0,9 | 2,6 | 17,3 | 18,0 | 18,6 | 67,7 | 1006,5 | 13,3 | 0,0 |
| 12:30 | 285,1 | 0,8 | 2,5 | 16,8 | 17,2 | 17,6 | 70,6 | 1006,6 | 13,2 | 0,0 |
| 12:40 | 253,2 | 1,4 | 3,3 | 16,8 | 17,2 | 17,5 | 70,4 | 1006,6 | 13,0 | 0,0 |
| 12:50 | 245,9 | 1,2 | 3,6 | 17,2 | 17,8 | 18,3 | 67,1 | 1006,6 | 12,8 | 0,0 |
| 13:00 | 256,2 | 1,7 | 4,7 | 16,9 | 17,7 | 18,3 | 68,2 | 1006,6 | 13,0 | 0,0 |
| 13:10 | 251,8 | 2,1 | 5,6 | 14,2 | 15,3 | 16,9 | 81,0 | 1006,9 | 13,3 | 0,0 |
| 13:20 | 257,0 | 1,5 | 3,3 | 13,5 | 13,9 | 14,3 | 87,8 | 1007,2 | 13,3 | 0,0 |
| 13:30 | 253,5 | 1,2 | 2,9 | 13,1 | 13,4 | 13,7 | 88,4 | 1007,3 | 12,9 | 0,0 |
| 13:40 | 254,2 | 0,6 | 1,7 | 13,1 | 13,3 | 13,5 | 89,9 | 1007,4 | 13,3 | 0,0 |
| 13:50 | 254,9 | 0,5 | 1,2 | 13,3 | 13,6 | 13,8 | 89,5 | 1007,4 | 13,5 | 0,0 |
| 14:00 | 271,0 | 0,6 | 1,8 | 13,7 | 14,3 | 14,8 | 87,5 | 1007,3 | 13,8 | 0,0 |
| 14:10 | 348,0 | 0,5 | 1,9 | 14,6 | 15,4 | 16,2 | 83,2 | 1007,4 | 14,1 | 0,0 |
| 14:20 | 1,8 | 0,7 | 2,2 | 15,8 | 16,3 | 16,7 | 81,5 | 1007,4 | 14,6 | 0,0 |
| 14:30 | 10,1 | 0,7 | 1,9 | 15,0 | 15,4 | 16,0 | 80,8 | 1007,5 | 13,6 | 0,0 |
| 14:40 | 359,6 | 0,5 | 1,2 | 15,0 | 15,3 | 15,6 | 79,8 | 1007,5 | 13,4 | 0,0 |
| 14:50 | 224,4 | 0,3 | 0,6 | 15,4 | 15,6 | 15,8 | 77,3 | 1007,4 | 13,3 | 0,0 |
| 15:00 | --- | --- | --- | --- | --- | --- | --- | --- | --- | --- |
| 15:10 | --- | --- | --- | --- | --- | --- | --- | --- | --- | --- |
| 15:20 | --- | --- | --- | --- | --- | --- | --- | --- | --- | --- |
| 15:30 | --- | --- | --- | --- | --- | --- | --- | --- | --- | --- |
| 15:40 | --- | --- | --- | --- | --- | --- | --- | --- | --- | --- |
| 15:50 | 240,3 | 0,7 | 1,4 | 16,7 | 16,8 | 17,0 | 71,1 | 1007,8 | 12,9 | 0,0 |
| Uhrzeit (MEZ) | Windrichtung in Grad | Windgeschw. in m/s | Windspitzen in m/s | Temp.Minima in °C | Temperatur in °C | Temp.Maxima in °C | Luftfeuchte in % | Luftdruck in hPa | Taupunkt in °C | Niederschlag in mm |
|---|---|---|---|---|---|---|---|---|---|---|
| 16:00 | 280,2 | 0,4 | 1,1 | 17,0 | 17,9 | 18,7 | 67,6 | 1007,8 | 13,2 | 0,0 |
| 16:10 | 252,8 | 0,6 | 2,0 | 18,2 | 18,7 | 19,3 | 65,3 | 1007,8 | 13,3 | 0,0 |
| 16:20 | 254,1 | 0,7 | 2,0 | 17,1 | 17,6 | 18,3 | 73,1 | 1007,9 | 14,1 | 0,0 |
| 16:30 | 245,2 | 0,8 | 2,0 | 16,3 | 16,6 | 17,2 | 75,9 | 1007,9 | 13,7 | 0,0 |
| 16:40 | 251,7 | 0,6 | 1,8 | 15,8 | 16,1 | 16,4 | 76,9 | 1007,9 | 13,5 | 0,0 |
| 16:50 | 259,5 | 0,7 | 1,9 | 15,9 | 16,2 | 16,4 | 76,6 | 1007,9 | 13,5 | 0,0 |
| 17:00 | 254,0 | 0,8 | 1,6 | 15,7 | 16,1 | 16,3 | 76,4 | 1008,0 | 13,3 | 0,0 |
| 17:10 | 258,4 | 1,0 | 2,9 | 15,4 | 15,8 | 16,1 | 77,0 | 1008,2 | 13,1 | 0,0 |
| 17:20 | 252,2 | 1,0 | 2,3 | 14,5 | 15,1 | 15,7 | 82,2 | 1008,3 | 13,4 | 0,0 |
| 17:30 | 248,4 | 0,3 | 1,2 | 14,3 | 14,7 | 15,1 | 86,4 | 1008,3 | 14,1 | 0,0 |
| 17:40 | 298,1 | 0,2 | 0,9 | 15,0 | 15,8 | 16,4 | 85,7 | 1008,2 | 15,1 | 0,0 |
| 17:50 | 287,6 | 0,2 | 0,7 | 16,1 | 16,6 | 17,1 | 78,2 | 1008,2 | 14,4 | 0,0 |
| 18:00 | 277,2 | 0,3 | 0,7 | 17,1 | 17,6 | 17,9 | 79,2 | 1008,3 | 15,6 | 0,0 |
| 18:10 | 261,4 | 0,2 | 0,7 | 17,3 | 17,4 | 17,7 | 80,4 | 1008,4 | 15,6 | 0,0 |
| 18:20 | 238,4 | 0,2 | 0,6 | 17,3 | 17,5 | 17,8 | 78,9 | 1008,4 | 15,5 | 0,0 |
| 18:30 | 264,3 | 0,3 | 0,8 | 16,7 | 17,2 | 17,7 | 80,7 | 1008,4 | 15,4 | 0,0 |
| 18:40 | 248,8 | 0,3 | 0,8 | 16,3 | 16,5 | 16,8 | 83,2 | 1008,5 | 15,3 | 0,0 |
| 18:50 | 252,2 | 0,4 | 1,1 | 15,3 | 16,0 | 16,4 | 83,9 | 1008,6 | 14,8 | 0,0 |
| 19:00 | 260,1 | 0,4 | 1,1 | 14,7 | 15,0 | 15,3 | 85,4 | 1008,7 | 14,2 | 0,0 |
| 19:10 | 257,4 | 0,6 | 1,2 | 14,1 | 14,5 | 14,8 | 86,8 | 1008,8 | 13,9 | 0,0 |
| 19:20 | 247,6 | 0,6 | 2,2 | 13,8 | 14,0 | 14,3 | 87,5 | 1008,9 | 13,5 | 0,0 |
| 19:30 | 255,2 | 0,5 | 1,1 | 13,6 | 13,8 | 14,0 | 87,4 | 1009,0 | 13,4 | 0,0 |
| 19:40 | 256,0 | 0,6 | 0,9 | 13,1 | 13,5 | 13,7 | 88,6 | 1009,1 | 13,2 | 0,0 |
| 19:50 | 246,7 | 0,6 | 1,2 | 13,0 | 13,1 | 13,3 | 89,7 | 1009,2 | 13,1 | 0,0 |
| 20:00 | 242,8 | 0,5 | 1,1 | 13,0 | 13,1 | 13,3 | 89,0 | 1009,4 | 12,9 | 0,0 |
| 20:10 | 252,6 | 0,6 | 1,5 | 12,8 | 13,0 | 13,2 | 88,6 | 1009,5 | 12,8 | 0,0 |
| 20:20 | 237,9 | 0,8 | 1,3 | 12,8 | 12,9 | 13,0 | 88,4 | 1009,5 | 12,6 | 0,0 |
| 20:30 | 257,4 | 0,5 | 1,0 | 12,3 | 12,6 | 12,8 | 88,7 | 1009,5 | 12,4 | 0,0 |
| 20:40 | 243,9 | 0,7 | 1,1 | 12,1 | 12,4 | 12,6 | 89,8 | 1009,6 | 12,3 | 0,0 |
| 20:50 | 254,9 | 0,5 | 1,1 | 11,9 | 12,1 | 12,4 | 90,1 | 1009,7 | 12,2 | 0,0 |
| 21:00 | 252,7 | 0,8 | 1,4 | 11,7 | 11,9 | 12,1 | 90,8 | 1009,8 | 12,0 | 0,0 |
| 21:10 | 241,8 | 0,7 | 1,4 | 11,8 | 11,9 | 12,0 | 90,8 | 1009,9 | 12,0 | 0,0 |
| 21:20 | 232,7 | 0,7 | 1,3 | 11,7 | 11,8 | 12,0 | 90,1 | 1010,0 | 11,8 | 0,0 |
| 21:30 | 241,4 | 0,6 | 1,3 | 11,5 | 11,7 | 11,9 | 89,1 | 1010,1 | 11,6 | 0,0 |
| 21:40 | 245,8 | 0,7 | 1,4 | 11,4 | 11,6 | 11,8 | 89,0 | 1010,1 | 11,5 | 0,0 |
| 21:50 | 242,3 | 0,6 | 1,7 | 11,3 | 11,5 | 11,8 | 89,1 | 1010,2 | 11,4 | 0,0 |
| 22:00 | 236,6 | 0,4 | 1,0 | 11,4 | 11,5 | 11,6 | 88,7 | 1010,2 | 11,4 | 0,0 |
| 22:10 | 238,8 | 0,5 | 1,1 | 11,3 | 11,5 | 11,6 | 88,6 | 1010,2 | 11,3 | 0,0 |
| 22:20 | 236,6 | 0,6 | 1,4 | 11,3 | 11,4 | 11,6 | 88,5 | 1010,3 | 11,2 | 0,0 |
| 22:30 | 239,9 | 0,5 | 1,2 | 11,3 | 11,4 | 11,5 | 88,3 | 1010,4 | 11,2 | 0,0 |
| 22:40 | 236,5 | 0,5 | 1,3 | 11,1 | 11,3 | 11,5 | 88,3 | 1010,4 | 11,1 | 0,0 |
| 22:50 | 237,2 | 0,7 | 1,1 | 11,2 | 11,4 | 11,5 | 88,2 | 1010,5 | 11,0 | 0,0 |
| 23:00 | 238,1 | 0,5 | 0,9 | 11,1 | 11,3 | 11,4 | 87,8 | 1010,6 | 11,0 | 0,0 |
| 23:10 | 235,2 | 0,7 | 1,2 | 10,9 | 11,2 | 11,3 | 88,4 | 1010,6 | 10,9 | 0,0 |
| 23:20 | 235,2 | 0,8 | 1,3 | 11,0 | 11,2 | 11,3 | 88,2 | 1010,7 | 10,9 | 0,0 |
| 23:30 | 235,0 | 0,8 | 1,3 | 11,1 | 11,2 | 11,3 | 87,8 | 1010,7 | 10,8 | 0,0 |
| 23:40 | 234,6 | 0,7 | 1,1 | 10,7 | 11,0 | 11,2 | 88,4 | 1010,7 | 10,7 | 0,0 |
| 23:50 | 231,5 | 0,9 | 1,4 | 10,7 | 10,8 | 11,0 | 89,1 | 1010,8 | 10,6 | 0,0 |
| << 21.8. | 23.8. >> |